owner,sensor,date,latitude,longitude,vertical_datum,wind_speed,wind_to_direction,wind_speed_of_gust,qcFlag 
TABS,ioos:station:wmo:42043:1,2005-05-01T00:00:00Z,28.9818,-94.9186,4.0,9.967035668,319.0681256,12.91,'11111222,11111222,11111222' 
TABS,ioos:station:wmo:42043:1,2005-05-01T00:30:00Z,28.9818,-94.9186,4.0,9.016695625,323.8416887,12.37,'11111222,11111222,11111222' 
TABS,ioos:station:wmo:42043:1,2005-05-01T01:00:00Z,28.9818,-94.9186,4.0,9.986656097,327.47147,11.97,'11111222,11111222,11111222' 
TABS,ioos:station:wmo:42043:1,2005-05-01T01:30:00Z,28.9818,-94.9186,4.0,9.661537145,327.2967083,12.43,'11111222,11111222,11111222' 
TABS,ioos:station:wmo:42043:1,2005-05-01T02:00:00Z,28.9818,-94.9186,4.0,9.471905827,324.279367,12.5,'11111222,11111222,11111222' 
TABS,ioos:station:wmo:42043:1,2005-05-01T02:30:00Z,28.9818,-94.9186,4.0,8.650693614,327.7979033,11.82,'11111222,11111222,11111222' 
TABS,ioos:station:wmo:42043:1,2005-05-01T03:00:00Z,28.9818,-94.9186,4.0,9.06695649,337.2244285,11.9,'11111222,11111222,11111222' 
TABS,ioos:station:wmo:42043:1,2005-05-01T03:30:00Z,28.9818,-94.9186,4.0,8.165353636,331.7086049,10.85,'11111222,11111222,11111222' 
TABS,ioos:station:wmo:42043:1,2005-05-01T04:00:00Z,28.9818,-94.9186,4.0,8.487290498,335.9413956,11.08,'11111222,11111222,11111222' 
TABS,ioos:station:wmo:42043:1,2005-05-01T04:30:00Z,28.9818,-94.9186,4.0,8.209360511,341.8297308,11.23,'11111222,11111222,11111222' 
TABS,ioos:station:wmo:42043:1,2005-05-01T05:00:00Z,28.9818,-94.9186,4.0,8.621647174,351.1930174,10.94,'11111222,11111222,11111222' 
TABS,ioos:station:wmo:42043:1,2005-05-01T05:30:00Z,28.9818,-94.9186,4.0,8.853818385,358.3170117,11.69,'11111222,11111222,11111222' 
TABS,ioos:station:wmo:42043:1,2005-05-01T06:00:00Z,28.9818,-94.9186,4.0,9.326199655,357.9105315,12.2,'11111222,11111222,11111222' 
TABS,ioos:station:wmo:42043:1,2005-05-01T06:30:00Z,28.9818,-94.9186,4.0,9.540167713,3.725966514,12.47,'11111222,11111222,11111222' 
TABS,ioos:station:wmo:42043:1,2005-05-01T07:00:00Z,28.9818,-94.9186,4.0,9.653206721,4.753561929,12.44,'11111222,11111222,11111222' 
TABS,ioos:station:wmo:42043:1,2005-05-01T07:30:00Z,28.9818,-94.9186,4.0,9.579989562,7.859213448,12.69,'11111222,11111222,11111222' 
TABS,ioos:station:wmo:42043:1,2005-05-01T08:00:00Z,28.9818,-94.9186,4.0,8.813546392,11.05470995,11.81,'11111222,11111222,11111222' 
TABS,ioos:station:wmo:42043:1,2005-05-01T08:30:00Z,28.9818,-94.9186,4.0,8.942930169,4.103655417,12.1,'11111222,11111222,11111222' 
TABS,ioos:station:wmo:42043:1,2005-05-01T09:00:00Z,28.9818,-94.9186,4.0,8.648265722,8.645191859,11.28,'11111222,11111222,11111222' 
TABS,ioos:station:wmo:42043:1,2005-05-01T09:30:00Z,28.9818,-94.9186,4.0,8.584200603,5.816632137,11.39,'11111222,11111222,11111222' 
TABS,ioos:station:wmo:42043:1,2005-05-01T10:00:00Z,28.9818,-94.9186,4.0,9.901676626,22.31692387,13.43,'11111222,11111222,11111222' 
TABS,ioos:station:wmo:42043:1,2005-05-01T10:30:00Z,28.9818,-94.9186,4.0,9.877109901,17.49911466,12.42,'11111222,11111222,11111222' 
TABS,ioos:station:wmo:42043:1,2005-05-01T11:00:00Z,28.9818,-94.9186,4.0,10.11498888,19.58117177,13.21,'11111222,11111222,11111222' 
TABS,ioos:station:wmo:42043:1,2005-05-01T11:30:00Z,28.9818,-94.9186,4.0,9.355575878,19.48054422,12.33,'11111222,11111222,11111222' 
TABS,ioos:station:wmo:42043:1,2005-05-01T12:00:00Z,28.9818,-94.9186,4.0,9.172665916,20.88477428,12.0,'11111222,11111222,11111222' 
TABS,ioos:station:wmo:42043:1,2005-05-01T12:30:00Z,28.9818,-94.9186,4.0,8.390947503,27.54200827,10.75,'11111222,11111222,11111222' 
TABS,ioos:station:wmo:42043:1,2005-05-01T13:00:00Z,28.9818,-94.9186,4.0,8.821451128,23.65886439,11.5,'11111222,11111222,11111222' 
TABS,ioos:station:wmo:42043:1,2005-05-01T13:30:00Z,28.9818,-94.9186,4.0,8.906609905,25.18373473,11.51,'11111222,11111222,11111222' 
TABS,ioos:station:wmo:42043:1,2005-05-01T14:00:00Z,28.9818,-94.9186,4.0,8.995137575,22.00222608,11.61,'11111222,11111222,11111222' 
TABS,ioos:station:wmo:42043:1,2005-05-01T14:30:00Z,28.9818,-94.9186,4.0,8.359294229,25.73713021,10.94,'11111222,11111222,11111222' 
TABS,ioos:station:wmo:42043:1,2005-05-01T15:00:00Z,28.9818,-94.9186,4.0,7.469672014,27.593931,9.72,'11111222,11111222,11111222' 
TABS,ioos:station:wmo:42043:1,2005-05-01T15:30:00Z,28.9818,-94.9186,4.0,7.687938605,22.16097104,9.84,'11111222,11111222,11111222' 
TABS,ioos:station:wmo:42043:1,2005-05-01T16:00:00Z,28.9818,-94.9186,4.0,7.27170544,26.45906719,10.09,'11111222,11111222,11111222' 
TABS,ioos:station:wmo:42043:1,2005-05-01T16:30:00Z,28.9818,-94.9186,4.0,7.326076713,21.20570143,9.48,'11111222,11111222,11111222' 
TABS,ioos:station:wmo:42043:1,2005-05-01T17:00:00Z,28.9818,-94.9186,4.0,7.569306441,22.36340326,9.57,'11111222,11111222,11111222' 
TABS,ioos:station:wmo:42043:1,2005-05-01T17:30:00Z,28.9818,-94.9186,4.0,7.867528201,20.69216405,10.09,'11111222,11111222,11111222' 
TABS,ioos:station:wmo:42043:1,2005-05-01T18:00:00Z,28.9818,-94.9186,4.0,7.200923552,14.22897906,8.96,'11111222,11111222,11111222' 
TABS,ioos:station:wmo:42043:1,2005-05-01T18:30:00Z,28.9818,-94.9186,4.0,7.56796538,17.69250317,10.91,'11111222,11111222,11111222' 
TABS,ioos:station:wmo:42043:1,2005-05-01T19:00:00Z,28.9818,-94.9186,4.0,7.764599153,28.71029794,9.64,'11111222,11111222,11111222' 
TABS,ioos:station:wmo:42043:1,2005-05-01T19:30:00Z,28.9818,-94.9186,4.0,7.685948217,21.92573369,9.59,'11111222,11111222,11111222' 
TABS,ioos:station:wmo:42043:1,2005-05-01T20:00:00Z,28.9818,-94.9186,4.0,7.342002452,20.65625719,9.25,'11111222,11111222,11111222' 
TABS,ioos:station:wmo:42043:1,2005-05-01T20:30:00Z,28.9818,-94.9186,4.0,6.352212213,29.1068905,7.96,'11111222,11111222,11111222' 
TABS,ioos:station:wmo:42043:1,2005-05-01T21:00:00Z,28.9818,-94.9186,4.0,7.038309456,31.04723917,8.9,'11111222,11111222,11111222' 
TABS,ioos:station:wmo:42043:1,2005-05-01T21:30:00Z,28.9818,-94.9186,4.0,6.737714746,35.57692573,8.51,'11111222,11111222,11111222' 
TABS,ioos:station:wmo:42043:1,2005-05-01T22:00:00Z,28.9818,-94.9186,4.0,6.619259777,44.14276206,8.35,'11111222,11111222,11111222' 
TABS,ioos:station:wmo:42043:1,2005-05-01T22:30:00Z,28.9818,-94.9186,4.0,6.722685475,52.31155759,8.64,'11111222,11111222,11111222' 
TABS,ioos:station:wmo:42043:1,2005-05-01T23:00:00Z,28.9818,-94.9186,4.0,6.47340714,58.00365268,8.12,'11111222,11111222,11111222' 
TABS,ioos:station:wmo:42043:1,2005-05-01T23:30:00Z,28.9818,-94.9186,4.0,6.177378085,60.94504293,8.51,'11111222,11111222,11111222' 
TABS,ioos:station:wmo:42043:1,2005-05-02T00:00:00Z,28.9818,-94.9186,4.0,5.849829057,69.79895253,8.53,'11111222,11111222,11111222' 
TABS,ioos:station:wmo:42043:1,2005-05-02T00:30:00Z,28.9818,-94.9186,4.0,5.526020268,70.2202599,7.78,'11111222,11111222,11111222' 
TABS,ioos:station:wmo:42043:1,2005-05-02T01:00:00Z,28.9818,-94.9186,4.0,5.2341666,70.69924606,7.01,'11111222,11111222,11111222' 
TABS,ioos:station:wmo:42043:1,2005-05-02T01:30:00Z,28.9818,-94.9186,4.0,4.719491498,70.1824729,6.55,'11111222,11111222,11111222' 
TABS,ioos:station:wmo:42043:1,2005-05-02T02:00:00Z,28.9818,-94.9186,4.0,5.344642177,67.56118614,7.68,'11111222,11111222,11111222' 
TABS,ioos:station:wmo:42043:1,2005-05-02T02:30:00Z,28.9818,-94.9186,4.0,4.859650193,68.1325397,6.7,'11111222,11111222,11111222' 
TABS,ioos:station:wmo:42043:1,2005-05-02T03:00:00Z,28.9818,-94.9186,4.0,4.734258126,61.48577363,6.32,'11111222,11111222,11111222' 
TABS,ioos:station:wmo:42043:1,2005-05-02T03:30:00Z,28.9818,-94.9186,4.0,4.292330369,70.25601004,6.01,'11111222,11111222,11111222' 
TABS,ioos:station:wmo:42043:1,2005-05-02T04:00:00Z,28.9818,-94.9186,4.0,3.95925498,67.58013956,5.17,'11111222,11111222,11111222' 
TABS,ioos:station:wmo:42043:1,2005-05-02T04:30:00Z,28.9818,-94.9186,4.0,4.071817776,85.63326053,5.49,'11111222,11111222,11111222' 
TABS,ioos:station:wmo:42043:1,2005-05-02T05:00:00Z,28.9818,-94.9186,4.0,3.965312094,80.4185071,4.95,'11111222,11111222,11111222' 
TABS,ioos:station:wmo:42043:1,2005-05-02T05:30:00Z,28.9818,-94.9186,4.0,3.615356137,74.27190804,5.2,'11111222,11111222,11111222' 
TABS,ioos:station:wmo:42043:1,2005-05-02T06:00:00Z,28.9818,-94.9186,4.0,3.210763149,68.62900679,4.7,'11111222,11111222,11111222' 
TABS,ioos:station:wmo:42043:1,2005-05-02T06:30:00Z,28.9818,-94.9186,4.0,3.84551687,72.13007257,5.16,'11111222,11111222,11111222' 
TABS,ioos:station:wmo:42043:1,2005-05-02T07:00:00Z,28.9818,-94.9186,4.0,3.277682108,73.33386054,4.92,'11111222,11111222,11111222' 
TABS,ioos:station:wmo:42043:1,2005-05-02T07:30:00Z,28.9818,-94.9186,4.0,2.84597962,61.4534551,4.03,'11111222,11111222,11111222' 
TABS,ioos:station:wmo:42043:1,2005-05-02T08:00:00Z,28.9818,-94.9186,4.0,2.746506872,57.64046189,3.78,'11111222,11111222,11111222' 
TABS,ioos:station:wmo:42043:1,2005-05-02T08:30:00Z,28.9818,-94.9186,4.0,3.270535124,47.72598893,4.03,'11111222,11111222,11111222' 
TABS,ioos:station:wmo:42043:1,2005-05-02T09:00:00Z,28.9818,-94.9186,4.0,3.210295937,45.2520864,4.34,'11111222,11111222,11111222' 
TABS,ioos:station:wmo:42043:1,2005-05-02T09:30:00Z,28.9818,-94.9186,4.0,3.831057295,38.21572611,4.66,'11111222,11111222,11111222' 
TABS,ioos:station:wmo:42043:1,2005-05-02T10:00:00Z,28.9818,-94.9186,4.0,4.305159695,41.98690385,5.7,'11111222,11111222,11111222' 
TABS,ioos:station:wmo:42043:1,2005-05-02T10:30:00Z,28.9818,-94.9186,4.0,4.285277121,44.43241923,5.6,'11111222,11111222,11111222' 
TABS,ioos:station:wmo:42043:1,2005-05-02T11:00:00Z,28.9818,-94.9186,4.0,5.56493486,45.07248687,6.99,'11111222,11111222,11111222' 
TABS,ioos:station:wmo:42043:1,2005-05-02T11:30:00Z,28.9818,-94.9186,4.0,6.239503185,50.72318598,7.74,'11111222,11111222,11111222' 
TABS,ioos:station:wmo:42043:1,2005-05-02T12:00:00Z,28.9818,-94.9186,4.0,5.826087881,53.44446766,7.56,'11111222,11111222,11111222' 
TABS,ioos:station:wmo:42043:1,2005-05-02T12:30:00Z,28.9818,-94.9186,4.0,6.835393185,42.86543054,8.92,'11111222,11111222,11111222' 
TABS,ioos:station:wmo:42043:1,2005-05-02T13:00:00Z,28.9818,-94.9186,4.0,5.749382576,42.0387551,7.21,'11111222,11111222,11111222' 
TABS,ioos:station:wmo:42043:1,2005-05-02T13:30:00Z,28.9818,-94.9186,4.0,5.820214773,45.90464355,7.56,'11111222,11111222,11111222' 
TABS,ioos:station:wmo:42043:1,2005-05-02T14:00:00Z,28.9818,-94.9186,4.0,5.761918083,48.86987656,7.36,'11111222,11111222,11111222' 
TABS,ioos:station:wmo:42043:1,2005-05-02T14:30:00Z,28.9818,-94.9186,4.0,6.060709529,57.12242597,7.61,'11111222,11111222,11111222' 
TABS,ioos:station:wmo:42043:1,2005-05-02T15:00:00Z,28.9818,-94.9186,4.0,5.211765536,56.98039747,7.08,'11111222,11111222,11111222' 
TABS,ioos:station:wmo:42043:1,2005-05-02T15:30:00Z,28.9818,-94.9186,4.0,5.307447597,66.57424283,6.95,'11111222,11111222,11111222' 
TABS,ioos:station:wmo:42043:1,2005-05-02T16:00:00Z,28.9818,-94.9186,4.0,5.530461102,46.02532799,7.09,'11111222,11111222,11111222' 
TABS,ioos:station:wmo:42043:1,2005-05-02T16:30:00Z,28.9818,-94.9186,4.0,6.382115637,47.03149367,8.11,'11111222,11111222,11111222' 
TABS,ioos:station:wmo:42043:1,2005-05-02T17:00:00Z,28.9818,-94.9186,4.0,6.650654103,43.0499472,8.42,'11111222,11111222,11111222' 
TABS,ioos:station:wmo:42043:1,2005-05-02T17:30:00Z,28.9818,-94.9186,4.0,7.236995233,41.02176804,9.33,'11111222,11111222,11111222' 
TABS,ioos:station:wmo:42043:1,2005-05-02T18:00:00Z,28.9818,-94.9186,4.0,6.843537097,38.71180829,8.51,'11111222,11111222,11111222' 
TABS,ioos:station:wmo:42043:1,2005-05-02T18:30:00Z,28.9818,-94.9186,4.0,6.996056032,37.09891336,8.49,'11111222,11111222,11111222' 
TABS,ioos:station:wmo:42043:1,2005-05-02T19:00:00Z,28.9818,-94.9186,4.0,6.669730129,41.04823841,8.48,'11111222,11111222,11111222' 
TABS,ioos:station:wmo:42043:1,2005-05-02T19:30:00Z,28.9818,-94.9186,4.0,6.205948759,39.76980501,7.62,'11111222,11111222,11111222' 
TABS,ioos:station:wmo:42043:1,2005-05-02T20:00:00Z,28.9818,-94.9186,4.0,5.976085675,36.56279991,7.17,'11111222,11111222,11111222' 
TABS,ioos:station:wmo:42043:1,2005-05-02T20:30:00Z,28.9818,-94.9186,4.0,5.203844733,34.66700796,6.41,'11111222,11111222,11111222' 
TABS,ioos:station:wmo:42043:1,2005-05-02T21:00:00Z,28.9818,-94.9186,4.0,5.824036401,35.35440475,7.45,'11111222,11111222,11111222' 
TABS,ioos:station:wmo:42043:1,2005-05-02T21:30:00Z,28.9818,-94.9186,4.0,6.026649152,41.83850648,7.36,'11111222,11111222,11111222' 
TABS,ioos:station:wmo:42043:1,2005-05-02T22:00:00Z,28.9818,-94.9186,4.0,6.462754831,41.23565825,7.97,'11111222,11111222,11111222' 
TABS,ioos:station:wmo:42043:1,2005-05-02T22:30:00Z,28.9818,-94.9186,4.0,5.119267526,31.17461244,6.41,'11111222,11111222,11111222' 
TABS,ioos:station:wmo:42043:1,2005-05-02T23:00:00Z,28.9818,-94.9186,4.0,4.960090725,38.53322626,6.7,'11111222,11111222,11111222' 
TABS,ioos:station:wmo:42043:1,2005-05-02T23:30:00Z,28.9818,-94.9186,4.0,4.82743203,39.03022784,5.95,'11111222,11111222,11111222' 
TABS,ioos:station:wmo:42043:1,2005-05-03T00:00:00Z,28.9818,-94.9186,4.0,5.245502836,42.29542213,6.67,'11111222,11111222,11111222' 
TABS,ioos:station:wmo:42043:1,2005-05-03T00:30:00Z,28.9818,-94.9186,4.0,5.583950215,55.28503824,6.95,'11111222,11111222,11111222' 
TABS,ioos:station:wmo:42043:1,2005-05-03T01:00:00Z,28.9818,-94.9186,4.0,5.598017506,59.63270301,7.37,'11111222,11111222,11111222' 
TABS,ioos:station:wmo:42043:1,2005-05-03T01:30:00Z,28.9818,-94.9186,4.0,5.180936209,56.09488603,6.37,'11111222,11111222,11111222' 
TABS,ioos:station:wmo:42043:1,2005-05-03T02:00:00Z,28.9818,-94.9186,4.0,4.929462445,62.1869692,6.08,'11111222,11111222,11111222' 
TABS,ioos:station:wmo:42043:1,2005-05-03T02:30:00Z,28.9818,-94.9186,4.0,4.900489771,77.26789529,6.26,'11111222,11111222,11111222' 
TABS,ioos:station:wmo:42043:1,2005-05-03T03:00:00Z,28.9818,-94.9186,4.0,4.41743138,80.75051079,6.04,'11111222,11111222,11111222' 
TABS,ioos:station:wmo:42043:1,2005-05-03T03:30:00Z,28.9818,-94.9186,4.0,4.119526672,86.10224812,5.17,'11111222,11111222,11111222' 
TABS,ioos:station:wmo:42043:1,2005-05-03T04:00:00Z,28.9818,-94.9186,4.0,4.060369441,85.90391823,5.28,'11111222,11111222,11111222' 
TABS,ioos:station:wmo:42043:1,2005-05-03T04:30:00Z,28.9818,-94.9186,4.0,4.050049382,90.28336008,5.1,'11111222,11111222,11111222' 
TABS,ioos:station:wmo:42043:1,2005-05-03T05:00:00Z,28.9818,-94.9186,4.0,3.831879434,91.79499767,4.97,'11111222,11111222,11111222' 
TABS,ioos:station:wmo:42043:1,2005-05-03T05:30:00Z,28.9818,-94.9186,4.0,4.016428762,83.42310032,5.4,'11111222,11111222,11111222' 
TABS,ioos:station:wmo:42043:1,2005-05-03T06:00:00Z,28.9818,-94.9186,4.0,3.976581446,60.46922291,5.33,'11111222,11111222,11111222' 
TABS,ioos:station:wmo:42043:1,2005-05-03T06:30:00Z,28.9818,-94.9186,4.0,3.119262733,69.93805365,4.04,'11111222,11111222,11111222' 
TABS,ioos:station:wmo:42043:1,2005-05-03T07:00:00Z,28.9818,-94.9186,4.0,3.221816258,68.13217375,4.05,'11111222,11111222,11111222' 
TABS,ioos:station:wmo:42043:1,2005-05-03T07:30:00Z,28.9818,-94.9186,4.0,3.517101079,51.69604627,4.27,'11111222,11111222,11111222' 
TABS,ioos:station:wmo:42043:1,2005-05-03T08:00:00Z,28.9818,-94.9186,4.0,4.451718769,33.08293121,5.22,'11111222,11111222,11111222' 
TABS,ioos:station:wmo:42043:1,2005-05-03T08:30:00Z,28.9818,-94.9186,4.0,4.56973741,17.83995213,5.59,'11111222,11111222,11111222' 
TABS,ioos:station:wmo:42043:1,2005-05-03T09:00:00Z,28.9818,-94.9186,4.0,6.461369824,6.486852942,8.03,'11111222,11111222,11111222' 
TABS,ioos:station:wmo:42043:1,2005-05-03T09:30:00Z,28.9818,-94.9186,4.0,6.780538327,15.30675065,8.08,'11111222,11111222,11111222' 
TABS,ioos:station:wmo:42043:1,2005-05-03T10:00:00Z,28.9818,-94.9186,4.0,8.707933165,31.80981223,10.45,'11111222,11111222,11111222' 
TABS,ioos:station:wmo:42043:1,2005-05-03T10:30:00Z,28.9818,-94.9186,4.0,7.935899445,39.42626026,9.85,'11111222,11111222,11111222' 
TABS,ioos:station:wmo:42043:1,2005-05-03T11:00:00Z,28.9818,-94.9186,4.0,7.491441784,50.25285577,9.21,'11111222,11111222,11111222' 
TABS,ioos:station:wmo:42043:1,2005-05-03T11:30:00Z,28.9818,-94.9186,4.0,7.377059035,61.94086379,9.05,'11111222,11111222,11111222' 
TABS,ioos:station:wmo:42043:1,2005-05-03T12:00:00Z,28.9818,-94.9186,4.0,7.050397152,55.92642297,8.41,'11111222,11111222,11111222' 
TABS,ioos:station:wmo:42043:1,2005-05-03T12:30:00Z,28.9818,-94.9186,4.0,6.329423354,56.86194141,7.67,'11111222,11111222,11111222' 
TABS,ioos:station:wmo:42043:1,2005-05-03T13:00:00Z,28.9818,-94.9186,4.0,5.974562746,52.34336861,7.09,'11111222,11111222,11111222' 
TABS,ioos:station:wmo:42043:1,2005-05-03T13:30:00Z,28.9818,-94.9186,4.0,6.66688083,39.82727471,8.07,'11111222,11111222,11111222' 
TABS,ioos:station:wmo:42043:1,2005-05-03T14:00:00Z,28.9818,-94.9186,4.0,8.368685679,31.96155468,10.12,'11111222,11111222,11111222' 
TABS,ioos:station:wmo:42043:1,2005-05-03T14:30:00Z,28.9818,-94.9186,4.0,8.517775531,33.16739677,10.03,'11111222,11111222,11111222' 
TABS,ioos:station:wmo:42043:1,2005-05-03T15:00:00Z,28.9818,-94.9186,4.0,8.074013872,32.09536273,10.43,'11111222,11111222,11111222' 
TABS,ioos:station:wmo:42043:1,2005-05-03T15:30:00Z,28.9818,-94.9186,4.0,8.235198844,32.95649581,9.96,'11111222,11111222,11111222' 
TABS,ioos:station:wmo:42043:1,2005-05-03T16:00:00Z,28.9818,-94.9186,4.0,8.185108429,27.50396735,9.79,'11111222,11111222,11111222' 
TABS,ioos:station:wmo:42043:1,2005-05-03T16:30:00Z,28.9818,-94.9186,4.0,8.430480413,32.50218081,10.14,'11111222,11111222,11111222' 
TABS,ioos:station:wmo:42043:1,2005-05-03T17:00:00Z,28.9818,-94.9186,4.0,8.50910101,33.68977829,10.46,'11111222,11111222,11111222' 
TABS,ioos:station:wmo:42043:1,2005-05-03T17:30:00Z,28.9818,-94.9186,4.0,7.95,36.86960097,9.64,'11111222,11111222,11111222' 
TABS,ioos:station:wmo:42043:1,2005-05-03T18:00:00Z,28.9818,-94.9186,4.0,7.997912228,32.43793948,9.65,'11111222,11111222,11111222' 
TABS,ioos:station:wmo:42043:1,2005-05-03T18:30:00Z,28.9818,-94.9186,4.0,7.88416768,30.40262492,9.34,'11111222,11111222,11111222' 
TABS,ioos:station:wmo:42043:1,2005-05-03T19:00:00Z,28.9818,-94.9186,4.0,7.72005829,30.08520442,9.58,'11111222,11111222,11111222' 
TABS,ioos:station:wmo:42043:1,2005-05-03T19:30:00Z,28.9818,-94.9186,4.0,7.860089058,29.66322832,9.36,'11111222,11111222,11111222' 
TABS,ioos:station:wmo:42043:1,2005-05-03T20:00:00Z,28.9818,-94.9186,4.0,7.561514399,31.31433851,9.27,'11111222,11111222,11111222' 
TABS,ioos:station:wmo:42043:1,2005-05-03T20:30:00Z,28.9818,-94.9186,4.0,7.73760945,43.74294303,9.22,'11111222,11111222,11111222' 
TABS,ioos:station:wmo:42043:1,2005-05-03T21:00:00Z,28.9818,-94.9186,4.0,7.318585929,45.16575818,9.19,'11111222,11111222,11111222' 
TABS,ioos:station:wmo:42043:1,2005-05-03T21:30:00Z,28.9818,-94.9186,4.0,6.961163696,46.74596185,8.8,'11111222,11111222,11111222' 
TABS,ioos:station:wmo:42043:1,2005-05-03T22:00:00Z,28.9818,-94.9186,4.0,6.943846196,44.76630212,8.84,'11111222,11111222,11111222' 
TABS,ioos:station:wmo:42043:1,2005-05-03T22:30:00Z,28.9818,-94.9186,4.0,6.84000731,46.48062758,8.46,'11111222,11111222,11111222' 
TABS,ioos:station:wmo:42043:1,2005-05-03T23:00:00Z,28.9818,-94.9186,4.0,6.958052889,40.5116742,8.74,'11111222,11111222,11111222' 
TABS,ioos:station:wmo:42043:1,2005-05-03T23:30:00Z,28.9818,-94.9186,4.0,7.379010774,40.27253037,9.19,'11111222,11111222,11111222' 
TABS,ioos:station:wmo:42043:1,2005-05-04T00:00:00Z,28.9818,-94.9186,4.0,6.953855046,40.9763414,8.65,'11111222,11111222,11111222' 
TABS,ioos:station:wmo:42043:1,2005-05-04T00:30:00Z,28.9818,-94.9186,4.0,6.785167647,46.97049823,8.2,'11111222,11111222,11111222' 
TABS,ioos:station:wmo:42043:1,2005-05-04T01:00:00Z,28.9818,-94.9186,4.0,6.597279742,48.7483909,8.27,'11111222,11111222,11111222' 
TABS,ioos:station:wmo:42043:1,2005-05-04T01:30:00Z,28.9818,-94.9186,4.0,6.79356313,51.2740042,8.32,'11111222,11111222,11111222' 
TABS,ioos:station:wmo:42043:1,2005-05-04T02:00:00Z,28.9818,-94.9186,4.0,6.473831941,54.49284935,7.83,'11111222,11111222,11111222' 
TABS,ioos:station:wmo:42043:1,2005-05-04T02:30:00Z,28.9818,-94.9186,4.0,5.974378629,49.75205171,7.16,'11111222,11111222,11111222' 
TABS,ioos:station:wmo:42043:1,2005-05-04T03:00:00Z,28.9818,-94.9186,4.0,6.052834047,44.99968431,7.51,'11111222,11111222,11111222' 
TABS,ioos:station:wmo:42043:1,2005-05-04T03:30:00Z,28.9818,-94.9186,4.0,6.614605052,48.18630202,7.99,'11111222,11111222,11111222' 
TABS,ioos:station:wmo:42043:1,2005-05-04T04:00:00Z,28.9818,-94.9186,4.0,6.656613253,49.08095523,8.22,'11111222,11111222,11111222' 
TABS,ioos:station:wmo:42043:1,2005-05-04T04:30:00Z,28.9818,-94.9186,4.0,6.948093264,53.42663363,8.33,'11111222,11111222,11111222' 
TABS,ioos:station:wmo:42043:1,2005-05-04T05:00:00Z,28.9818,-94.9186,4.0,6.831141925,56.40264043,8.17,'11111222,11111222,11111222' 
TABS,ioos:station:wmo:42043:1,2005-05-04T05:30:00Z,28.9818,-94.9186,4.0,6.932041546,53.32813609,8.01,'11111222,11111222,11111222' 
TABS,ioos:station:wmo:42043:1,2005-05-04T06:00:00Z,28.9818,-94.9186,4.0,6.969225208,54.87293861,8.47,'11111222,11111222,11111222' 
TABS,ioos:station:wmo:42043:1,2005-05-04T06:30:00Z,28.9818,-94.9186,4.0,6.760924493,50.94280837,7.91,'11111222,11111222,11111222' 
TABS,ioos:station:wmo:42043:1,2005-05-04T07:00:00Z,28.9818,-94.9186,4.0,5.410147872,44.02612653,6.89,'11111222,11111222,11111222' 
TABS,ioos:station:wmo:42043:1,2005-05-04T07:30:00Z,28.9818,-94.9186,4.0,4.70485919,34.87200882,6.09,'11111222,11111222,11111222' 
TABS,ioos:station:wmo:42043:1,2005-05-04T08:00:00Z,28.9818,-94.9186,4.0,4.015283303,31.86896807,5.07,'11111222,11111222,11111222' 
TABS,ioos:station:wmo:42043:1,2005-05-04T08:30:00Z,28.9818,-94.9186,4.0,4.235717177,25.59683444,5.25,'11111222,11111222,11111222' 
TABS,ioos:station:wmo:42043:1,2005-05-04T09:00:00Z,28.9818,-94.9186,4.0,5.385053389,27.42129421,6.76,'11111222,11111222,11111222' 
TABS,ioos:station:wmo:42043:1,2005-05-04T09:30:00Z,28.9818,-94.9186,4.0,6.574191966,26.17501831,7.94,'11111222,11111222,11111222' 
TABS,ioos:station:wmo:42043:1,2005-05-04T10:00:00Z,28.9818,-94.9186,4.0,7.147733907,33.06726569,9.97,'11111222,11111222,11111222' 
TABS,ioos:station:wmo:42043:1,2005-05-04T10:30:00Z,28.9818,-94.9186,4.0,7.98621312,35.52070428,10.33,'11111222,11111222,11111222' 
TABS,ioos:station:wmo:42043:1,2005-05-04T11:00:00Z,28.9818,-94.9186,4.0,6.337925528,27.53511312,7.88,'11111222,11111222,11111222' 
TABS,ioos:station:wmo:42043:1,2005-05-04T11:30:00Z,28.9818,-94.9186,4.0,8.400440465,45.09614154,10.09,'11111222,11111222,11111222' 
TABS,ioos:station:wmo:42043:1,2005-05-04T12:00:00Z,28.9818,-94.9186,4.0,7.41400027,36.88505704,9.76,'11111222,11111222,11111222' 
TABS,ioos:station:wmo:42043:1,2005-05-04T12:30:00Z,28.9818,-94.9186,4.0,8.234227347,39.43108268,10.25,'11111222,11111222,11111222' 
TABS,ioos:station:wmo:42043:1,2005-05-04T13:00:00Z,28.9818,-94.9186,4.0,8.029202949,39.89663352,9.52,'11111222,11111222,11111222' 
TABS,ioos:station:wmo:42043:1,2005-05-04T13:30:00Z,28.9818,-94.9186,4.0,7.896239611,33.95140042,9.63,'11111222,11111222,11111222' 
TABS,ioos:station:wmo:42043:1,2005-05-04T14:00:00Z,28.9818,-94.9186,4.0,7.252013514,36.75899175,8.84,'11111222,11111222,11111222' 
TABS,ioos:station:wmo:42043:1,2005-05-04T14:30:00Z,28.9818,-94.9186,4.0,6.830358702,25.40176546,8.93,'11111222,11111222,11111222' 
TABS,ioos:station:wmo:42043:1,2005-05-04T15:00:00Z,28.9818,-94.9186,4.0,6.515220641,16.40417998,8.07,'11111222,11111222,11111222' 
TABS,ioos:station:wmo:42043:1,2005-05-04T15:30:00Z,28.9818,-94.9186,4.0,6.938385979,19.00919934,8.63,'11111222,11111222,11111222' 
TABS,ioos:station:wmo:42043:1,2005-05-04T16:00:00Z,28.9818,-94.9186,4.0,7.443903546,22.84459109,9.29,'11111222,11111222,11111222' 
TABS,ioos:station:wmo:42043:1,2005-05-04T16:30:00Z,28.9818,-94.9186,4.0,7.741014145,23.8494951,9.67,'11111222,11111222,11111222' 
TABS,ioos:station:wmo:42043:1,2005-05-04T17:00:00Z,28.9818,-94.9186,4.0,7.392820842,23.6868026,9.32,'11111222,11111222,11111222' 
TABS,ioos:station:wmo:42043:1,2005-05-04T17:30:00Z,28.9818,-94.9186,4.0,8.154569271,25.33922217,9.97,'11111222,11111222,11111222' 
TABS,ioos:station:wmo:42043:1,2005-05-04T18:00:00Z,28.9818,-94.9186,4.0,8.224335839,26.81402399,9.97,'11111222,11111222,11111222' 
TABS,ioos:station:wmo:42043:1,2005-05-04T18:30:00Z,28.9818,-94.9186,4.0,8.325244741,29.58241202,10.38,'11111222,11111222,11111222' 